Date String (YYYY-MM-DD hh:mm:ss) UTC,Instrument flags,Ambient pressure (hPa),Sample flow (lpm),Bypass flow (lpm),Sample temperature (°C),Ambient temperature (°C),ASC tube jacket temperature (°C),LED temperature (°C),Box temperature (°C),Sample RH (%),Span deviation,Mass concentration (μg/m³),Mass concentration (μg/m³),Mass concentration (μg/m³)
DateTimeUTC,F1_M11,P_M11,Q1_M11,Q2_M11,T1_M11,T2_M11,T3_M11,T4_M11,T5_M11,U1_M11,ZSPAN_M11,X0_M11,X2_M11,X1_M11
2022-04-07 17:00:00,,0833.6,5.01,0.00,23.7,22.9,00.0,32.5,25.5,05.7,0000.0,0006.42,0001.80,0000.95
2022-04-07 17:01:00,,0833.6,5.00,0.00,23.7,22.9,00.0,32.5,25.5,05.5,0000.0,0006.59,0001.83,0000.95
2022-04-07 17:02:00,,0833.6,5.00,0.00,23.7,22.9,00.0,32.5,25.5,05.5,0000.0,0006.84,0001.89,0000.94
2022-04-07 17:03:00,,0833.7,5.00,0.00,23.7,22.9,00.0,32.5,25.5,05.5,0000.0,0006.73,0001.89,0000.94
2022-04-07 17:04:00,,0833.7,5.00,0.00,23.7,22.9,00.0,32.5,25.5,05.4,0000.0,0006.57,0001.85,0000.94
2022-04-07 17:05:00,,0833.6,5.01,0.00,23.8,22.9,00.0,32.5,25.5,05.5,0000.0,0006.43,0001.85,0000.93
2022-04-07 17:06:00,,0833.6,5.00,0.00,23.8,23.0,00.0,32.6,25.5,05.6,0000.0,0005.02,0001.81,0000.93
2022-04-07 17:07:00,,0833.6,5.00,0.00,23.8,23.0,00.0,32.6,25.6,05.4,0000.0,0004.25,0001.78,0000.92
2022-04-07 17:08:00,,0833.6,5.00,0.00,23.8,23.0,00.0,32.6,25.6,05.2,0000.0,0004.22,0001.77,0000.91
2022-04-07 17:09:00,,0833.6,5.00,0.00,23.8,23.0,00.0,32.6,25.6,05.3,0000.0,0004.01,0001.74,0000.92
2022-04-07 17:10:00,,0833.6,5.00,0.00,23.9,23.1,00.0,32.6,25.6,05.2,0000.0,0004.34,0001.73,0000.93
2022-04-07 17:11:00,,0833.6,4.99,0.00,23.9,23.1,00.0,32.6,25.6,05.2,0000.0,0005.42,0001.74,0000.92
2022-04-07 17:12:00,,0833.6,5.00,0.00,23.9,23.2,00.0,32.7,25.6,05.5,0000.0,0005.72,0001.73,0000.92
2022-04-07 17:13:00,,0833.6,4.99,0.00,23.9,23.2,00.0,32.7,25.7,05.2,0000.0,0005.55,0001.69,0000.92
2022-04-07 17:14:00,,0833.6,5.00,0.00,23.9,23.2,00.0,32.7,25.7,05.3,0000.0,0005.50,0001.70,0000.91
2022-04-07 17:15:00,,0833.6,5.01,0.00,24.0,23.2,00.0,32.7,25.7,05.2,0000.0,0005.51,0001.69,0000.91
2022-04-07 17:16:00,,0833.6,4.99,0.00,24.0,23.2,00.0,32.7,25.8,05.2,0000.0,0005.71,0001.71,0000.91
2022-04-07 17:17:00,,0833.6,4.99,0.00,24.0,23.2,00.0,32.7,25.9,05.2,0000.0,0005.54,0001.69,0000.92
2022-04-07 17:18:00,,0833.6,5.00,0.00,24.0,23.3,00.0,32.8,25.9,05.1,0000.0,0005.86,0001.71,0000.93
2022-04-07 17:19:00,,0833.6,5.00,0.00,24.0,23.3,00.0,32.8,25.9,05.2,0000.0,0006.56,0001.75,0000.93
2022-04-07 17:20:00,,0833.6,5.01,0.00,24.1,23.3,00.0,32.8,25.9,05.4,0000.0,0007.05,0001.79,0000.92
2022-04-07 17:21:00,,0833.6,5.01,0.00,24.1,23.3,00.0,32.8,25.9,05.2,0000.0,0007.24,0001.82,0000.91
2022-04-07 17:22:00,,0833.6,5.00,0.00,24.1,23.3,00.0,32.8,26.0,05.1,0000.0,0006.18,0001.83,0000.91
2022-04-07 17:23:00,,0833.5,5.00,0.00,24.1,23.4,00.0,32.9,26.0,05.3,0000.0,0005.87,0001.79,0000.91
2022-04-07 17:24:00,,0833.6,5.00,0.00,24.2,23.4,00.0,32.9,26.0,05.3,0000.0,0006.67,0001.85,0000.92
2022-04-07 17:25:00,,0833.6,5.00,0.00,24.2,23.4,00.0,32.9,26.0,05.4,0000.0,0006.85,0001.87,0000.94
2022-04-07 17:26:00,,0833.6,5.00,0.00,24.2,23.4,00.0,32.9,26.0,05.2,0000.0,0006.92,0001.89,0000.94
2022-04-07 17:27:00,,0833.6,5.00,0.00,24.2,23.4,00.0,32.9,26.1,05.3,0000.0,0006.64,0001.86,0000.95
2022-04-07 17:28:00,,0833.5,5.00,0.00,24.2,23.4,00.0,33.0,26.1,05.2,0000.0,0006.67,0001.86,0000.95
2022-04-07 17:29:00,,0833.5,5.02,0.00,24.2,23.4,00.0,33.0,26.1,05.1,0000.0,0006.35,0001.83,0000.95
2022-04-07 17:30:00,,0833.4,5.00,0.00,24.3,23.4,00.0,33.0,26.1,05.2,0000.0,0005.87,0001.78,0000.96
2022-04-07 17:31:00,,0833.4,5.00,0.00,24.3,23.4,00.0,33.0,26.1,05.4,0000.0,0006.68,0001.73,0000.96
2022-04-07 17:32:00,,0833.4,5.00,0.00,24.3,23.5,00.0,33.0,26.1,05.4,0000.0,0007.06,0001.73,0000.96
2022-04-07 17:33:00,,0833.4,5.00,0.00,24.3,23.5,00.0,33.1,26.2,05.1,0000.0,0007.42,0001.68,0000.96
2022-04-07 17:34:00,,0833.4,5.00,0.00,24.3,23.5,00.0,33.1,26.2,05.0,0000.0,0008.37,0001.69,0000.96
2022-04-07 17:35:00,,0833.4,5.00,0.00,24.3,23.6,00.0,33.1,26.2,05.3,0000.0,0008.11,0001.66,0000.96
2022-04-07 17:36:00,,0833.3,5.01,0.00,24.3,23.5,00.0,33.1,26.2,05.3,0000.0,0008.16,0001.65,0000.95
2022-04-07 17:37:00,,0833.4,5.00,0.00,24.4,23.5,00.0,33.1,26.2,05.4,0000.0,0009.01,0001.63,0000.96
2022-04-07 17:38:00,,0833.4,5.00,0.00,24.4,23.5,00.0,33.1,26.2,05.4,0000.0,0009.10,0001.66,0000.96
2022-04-07 17:39:00,,0833.5,5.00,0.00,24.4,23.5,00.0,33.2,26.2,05.3,0000.0,0009.35,0001.68,0000.98
2022-04-07 17:40:00,,0833.5,5.00,0.00,24.4,23.5,00.0,33.2,26.2,05.3,0000.0,0010.13,0001.71,0000.97
2022-04-07 17:41:00,,0833.5,5.00,0.00,24.4,23.5,00.0,33.2,26.2,05.7,0000.0,0009.86,0001.73,0000.97
2022-04-07 17:42:00,,0833.5,5.00,0.00,24.4,23.5,00.0,33.2,26.2,05.5,0000.0,0009.92,0001.75,0000.96
2022-04-07 17:43:00,,0833.5,5.00,0.00,24.4,23.5,00.0,33.2,26.2,05.6,0000.0,0009.57,0001.74,0000.96
2022-04-07 17:44:00,,0833.5,5.00,0.00,24.4,23.5,00.0,33.2,26.2,05.8,0000.0,0009.22,0001.71,0000.97
2022-04-07 17:45:00,,0833.4,5.00,0.00,24.4,23.5,00.0,33.2,26.2,06.2,0000.0,0008.37,0001.70,0000.97
2022-04-07 17:46:00,,0833.5,4.99,0.00,24.4,23.5,00.0,33.2,26.2,05.7,0000.0,0008.25,0001.71,0000.97
2022-04-07 17:47:00,,0833.4,4.99,0.00,24.4,23.5,00.0,33.2,26.2,05.4,0000.0,0008.34,0001.73,0000.97
2022-04-07 17:48:00,,0833.4,4.99,0.00,24.4,23.5,00.0,33.2,26.2,05.3,0000.0,0008.10,0001.76,0000.97
2022-04-07 17:49:00,,0833.4,5.00,0.00,24.4,23.5,00.0,33.2,26.2,05.5,0000.0,0008.01,0001.76,0000.96
2022-04-07 17:50:00,,0833.3,5.00,0.00,24.4,23.5,00.0,33.2,26.2,05.5,0000.0,0008.28,0001.80,0000.96
2022-04-07 17:51:00,,0833.3,5.00,0.00,24.4,23.5,00.0,33.2,26.1,05.4,0000.0,0007.93,0001.77,0000.96
2022-04-07 17:52:00,,0833.4,5.00,0.00,24.3,23.4,00.0,33.2,26.0,05.3,0000.0,0008.55,0001.84,0000.96
2022-04-07 17:53:00,,0833.3,5.00,0.00,24.3,23.4,00.0,33.2,26.0,05.3,0000.0,0008.10,0001.87,0000.97
2022-04-07 17:54:00,,0833.3,5.00,0.00,24.3,23.4,00.0,33.2,26.0,05.4,0000.0,0008.12,0001.94,0000.97
2022-04-07 17:55:00,,0833.3,5.01,0.00,24.3,23.3,00.0,33.2,26.0,05.3,0000.0,0008.81,0002.06,0000.98
2022-04-07 17:56:00,,0833.2,5.00,0.00,24.2,23.3,00.0,33.2,26.0,05.3,0000.0,0009.68,0002.07,0000.98
2022-04-07 17:57:00,,0833.3,5.00,0.00,24.2,23.3,00.0,33.2,26.0,05.4,0000.0,0009.75,0002.02,0000.98
2022-04-07 17:58:00,,0833.2,5.00,0.00,24.2,23.3,00.0,33.2,26.0,05.2,0000.0,0010.07,0001.96,0000.98
2022-04-07 17:59:00,,0833.2,5.00,0.00,24.3,23.4,00.0,33.2,26.0,05.3,0000.0,0009.54,0001.93,0000.98
